Location: Mason Neck State Park
(38.6428°N, 77.1981°W)
Time: 15:14:06
(UTC-04:00)

ISS - Visible Passes

Search period start: 28 June 2017 00:00
Search period end: 08 July 2017 00:00
Orbit: 401 x 408 km, 51.6° (Epoch: 29 June)

Date Brightness Start Highest point End Pass type
(mag) Time Alt. Az. Time Alt. Az. Time Alt. Az.
03 Jul -1.5 05:00:15 10° S 05:02:30 17° SE 05:04:46 10° E visible
05 Jul -3.1 04:51:38 14° SSW 04:54:15 45° SE 04:57:23 10° ENE visible
06 Jul -2.1 04:01:28 21° SSE 04:02:06 22° SE 04:04:42 10° E visible
07 Jul -3.7 04:43:52 19° WSW 04:46:05 67° NW 04:49:20 10° NE visible
